Wind_Speed
37 36 34 32 30 26 24 24 24 24 22 20 18 15 13 11 9 7 5 3 2 2 2 3 5 7 8 9 9 10 12 15 16 17 18 20 22 23 25 26 26 26 27 28 28 28 28 28 28 28 28 29 28 28 28 27 27 26 25 24 24 25 26
38 39 38 36 34 31 27 25 26 27 25 23 21 18 16 14 11 9 8 7 6 5 3 3 3 5 6 7 8 8 9 11 13 14 16 17 18 20 21 23 24 24 24 26 26 27 27 26 26 26 27 27 28 28 27 27 26 26 25 24 24 24 25
41 41 41 39 36 34 30 26 28 30 27 25 23 21 19 17 15 13 11 10 9 9 7 5 4 4 5 6 7 7 8 9 10 11 13 14 15 16 18 19 20 21 22 22 24 25 25 25 25 25 25 25 26 26 26 26 25 25 24 24 23 22 22
45 44 42 40 37 35 33 29 29 31 29 27 26 24 22 20 18 16 14 12 12 12 11 9 6 5 5 6 7 7 7 8 9 9 10 10 11 13 14 15 16 17 18 19 21 22 23 23 23 23 23 23 23 24 24 24 24 23 23 22 22 21 20
46 46 44 42 39 37 35 31 31 32 30 28 27 26 25 23 21 19 17 15 14 14 13 12 10 8 7 7 7 8 8 8 8 9 9 9 9 10 11 12 13 14 15 16 17 18 19 21 21 21 21 21 21 21 22 22 22 22 21 20 20 19 19
47 47 46 43 41 39 35 33 32 31 30 29 28 27 26 24 22 21 20 17 16 15 15 14 13 12 10 9 9 9 9 9 9 9 10 9 8 8 8 9 10 11 12 13 14 15 16 17 19 19 19 19 19 19 20 20 20 20 20 19 18 18 17
48 47 46 43 42 41 37 35 35 34 31 30 30 29 27 26 24 23 21 20 18 17 16 16 15 14 12 11 11 11 10 11 11 10 10 10 10 9 8 7 8 8 9 10 11 12 13 14 15 16 17 17 17 17 18 18 18 18 17 17 17 16 16
48 47 46 43 42 42 41 38 38 37 34 32 31 31 29 27 26 25 23 22 21 20 19 19 18 17 16 14 13 13 12 12 12 12 11 11 11 11 9 8 7 6 6 7 8 9 9 10 12 13 14 15 15 15 15 16 16 16 16 15 15 14 14
47 46 46 44 43 44 43 40 37 36 33 31 31 31 30 29 28 28 26 24 24 24 23 23 21 21 20 17 15 15 15 15 14 14 13 13 12 12 12 10 8 6 5 4 5 6 7 7 8 9 10 11 12 13 13 13 13 14 14 14 13 12 12
46 44 44 43 42 43 42 40 37 35 31 29 29 30 31 31 29 28 28 27 27 28 28 28 26 24 23 21 20 19 18 17 17 16 16 15 14 14 13 13 11 9 7 5 4 4 5 5 6 6 6 7 8 9 10 11 11 11 11 12 11 11 10
45 42 42 42 42 42 42 41 38 34 31 29 28 29 32 33 31 30 31 31 31 31 32 32 31 29 26 24 23 22 21 20 20 19 18 18 17 16 16 15 14 12 10 8 7 5 4 4 4 4 4 4 4 5 6 7 8 8 8 8 9 9 9
44 42 41 41 41 41 41 40 36 32 31 30 31 31 33 34 34 34 34 34 34 35 36 36 35 33 31 29 27 26 25 24 23 22 21 21 20 19 18 18 17 15 13 12 11 9 7 6 5 4 5 5 4 3 3 3 4 5 5 6 6 6 6
45 45 44 42 41 41 40 37 35 33 32 33 34 34 33 34 36 37 37 36 36 37 39 39 38 37 35 33 31 29 29 27 27 26 24 24 23 22 21 21 20 18 16 14 14 13 11 9 7 7 7 7 7 6 5 3 2 3 4 4 4 4 4
48 49 51 49 45 44 44 40 38 37 36 37 38 36 36 36 36 36 38 38 38 39 40 40 40 39 39 38 36 35 33 30 30 29 28 27 26 25 24 24 23 21 20 17 16 17 16 14 11 10 10 10 10 10 10 8 5 5 6 5 3 3 2
57 54 53 53 51 49 48 45 42 40 40 41 42 40 39 38 35 34 36 38 38 39 40 42 41 39 39 42 43 42 39 34 32 32 31 30 29 28 27 27 26 24 23 22 20 19 19 18 15 13 12 12 13 13 14 13 9 7 7 6 5 4 3
62 60 56 56 56 55 51 45 42 41 40 42 45 45 43 41 38 37 37 37 38 38 39 41 41 39 38 40 43 44 42 39 36 34 33 32 31 30 29 29 28 26 25 25 24 23 22 21 19 17 16 15 15 15 15 15 13 11 10 10 10 9 8
62 60 58 58 59 59 52 44 42 42 40 40 43 46 45 45 44 43 42 41 40 40 39 38 38 38 38 41 44 44 42 40 38 36 35 33 32 32 32 31 31 29 27 27 27 27 27 26 25 23 21 20 19 17 16 16 17 17 15 14 14 14 13
70 61 56 59 63 61 53 45 42 42 40 39 43 46 46 46 48 48 47 47 46 45 45 43 41 40 41 44 46 45 42 40 39 37 35 34 34 35 34 34 35 34 30 29 29 30 30 30 29 28 27 25 23 21 19 19 20 20 20 20 19 18 17
82 71 61 61 67 65 57 49 44 42 41 41 43 48 48 47 49 52 52 50 51 51 50 47 44 43 43 45 46 46 44 41 39 36 34 33 34 36 36 35 36 37 34 32 32 31 32 33 32 31 30 29 27 24 21 21 22 23 22 22 22 21 20
88 84 73 67 69 68 63 56 50 46 45 43 43 45 48 48 50 53 52 51 52 52 50 49 48 47 45 45 46 48 48 44 39 36 35 35 34 36 37 36 37 38 37 35 35 35 35 35 35 34 33 32 30 28 26 24 25 25 25 24 24 24 24
89 89 84 77 72 69 64 61 57 52 49 47 44 43 45 48 50 49 46 47 52 55 54 53 54 53 52 49 48 48 50 48 42 38 39 40 38 37 38 38 39 41 41 37 35 34 35 35 35 36 35 35 33 31 30 29 29 29 28 27 27 27 27
91 90 91 87 81 74 67 63 61 58 54 52 49 46 45 47 49 50 49 51 55 57 58 59 59 59 60 60 57 53 51 49 46 43 43 45 43 40 40 40 40 40 40 39 36 32 32 33 35 36 36 36 36 35 34 34 33 32 31 29 29 29 29
94 92 92 93 90 84 76 70 66 63 61 59 56 52 47 44 45 50 54 58 59 57 60 63 62 61 64 65 65 61 56 53 50 48 47 47 46 43 41 42 41 38 40 44 42 35 33 35 36 37 37 37 37 37 36 37 37 36 34 33 33 33 32
96 95 95 95 94 91 85 79 73 68 66 66 63 58 54 50 49 49 51 56 60 59 59 62 63 63 65 66 66 65 61 57 54 53 51 49 49 47 45 45 44 42 43 48 46 41 40 39 39 39 40 40 40 40 39 39 40 41 40 38 37 37 37
98 97 97 97 97 95 90 86 82 76 72 72 70 66 64 62 61 59 56 55 58 58 58 61 64 65 66 66 65 64 62 59 56 56 56 54 53 52 52 51 50 48 48 50 51 50 49 47 45 44 43 44 45 45 44 41 41 43 44 44 42 41 40
100 99 100 99 99 98 95 91 89 85 80 78 77 75 74 73 71 69 66 62 60 60 61 63 65 66 67 66 64 62 62 62 60 60 61 59 55 54 56 57 57 57 56 55 55 55 54 53 52 51 52 54 55 54 52 49 46 45 45 45 44 43 42
100 101 102 101 100 100 99 96 93 90 85 83 83 83 82 81 78 75 73 71 68 66 66 67 68 68 70 70 66 63 63 64 63 63 63 61 57 56 57 60 62 64 63 57 50 47 49 52 53 52 53 57 59 59 59 57 55 53 51 49 48 45 42
100 100 101 102 102 101 100 98 96 93 89 87 87 89 88 87 85 81 78 77 76 74 73 72 71 71 72 73 69 65 65 65 65 65 64 63 60 59 60 64 65 66 66 61 51 45 45 47 49 50 53 55 56 58 60 60 59 56 54 53 51 48 44
99 100 100 102 102 101 101 100 97 94 92 90 90 92 93 92 90 87 83 80 79 78 76 74 73 73 74 75 72 69 67 67 67 67 65 64 63 62 64 67 69 68 67 64 60 57 55 54 52 55 59 61 60 60 60 61 60 56 53 53 52 51 48
97 97 98 100 102 102 101 101 98 96 95 94 93 93 94 95 94 92 88 84 83 82 79 77 76 75 76 77 77 74 71 70 70 69 67 66 65 65 65 67 70 71 70 68 66 65 64 63 63 63 65 66 66 64 60 59 59 56 53 52 53 52 50
97 96 95 97 100 102 102 102 101 99 98 98 98 97 96 96 97 96 94 90 87 86 84 83 81 79 78 79 79 78 75 74 74 73 71 69 68 67 67 67 69 72 73 72 71 70 68 67 67 68 69 70 70 69 66 63 60 58 56 54 53 52 50
101 100 97 96 96 98 101 102 103 103 102 102 102 102 101 99 98 98 98 96 93 91 89 88 87 85 83 81 81 81 80 79 79 78 77 76 74 73 72 71 71 72 75 76 76 75 74 72 70 69 69 69 68 68 69 68 64 62 60 58 56 56 53
104 104 104 101 98 97 99 101 103 105 106 105 105 105 105 105 103 101 100 100 99 97 95 94 93 92 89 87 85 85 85 84 84 83 82 82 81 80 80 79 76 74 76 79 79 78 79 79 77 75 73 70 66 65 66 68 66 65 64 62 61 62 61
106 106 107 107 104 101 101 101 103 106 107 108 107 107 107 108 108 107 105 103 102 101 100 99 99 98 96 94 92 90 90 89 88 87 87 86 85 84 83 83 81 78 78 80 81 81 82 83 82 81 80 77 72 69 68 67 66 64 64 64 64 66 67
108 108 108 110 110 108 105 104 105 107 108 108 109 109 109 109 110 110 109 108 106 104 102 102 103 103 101 100 98 97 96 95 94 93 92 91 90 88 86 85 85 83 82 81 82 83 85 85 85 84 84 82 79 77 75 73 70 67 65 64 64 66 69
110 110 110 111 112 113 112 109 108 108 109 110 110 110 111 111 112 112 112 112 111 109 105 103 103 104 104 102 101 100 100 100 100 99 98 97 95 94 92 90 89 89 87 86 86 86 87 88 88 87 87 86 84 81 78 76 75 74 71 69 68 68 69
112 112 113 113 114 115 117 116 114 112 111 112 112 112 112 113 113 114 114 115 115 114 111 107 104 104 104 103 101 100 99 100 101 102 102 101 100 98 97 95 94 93 91 90 90 90 90 90 90 90 90 90 89 86 82 79 79 79 77 76 75 74 74
114 114 115 115 116 117 118 120 121 120 118 116 115 114 114 114 115 116 116 116 116 117 116 113 109 106 104 103 101 99 98 99 99 100 101 101 101 101 99 98 96 96 95 95 95 95 93 92 92 92 92 93 93 92 90 87 86 85 84 83 82 82 84
Wind_Direction
212 212 210 211 212 213 215 221 222 217 215 216 217 218 216 216 220 223 224 223 223 261 310 339 2 21 33 39 41 42 39 38 38 41 46 52 56 57 57 59 59 58 58 59 59 59 60 61 62 63 62 63 66 69 72 74 77 81 84 87 91 96 100
213 214 215 216 214 212 211 217 224 221 217 217 219 222 224 223 224 227 229 234 237 241 255 283 321 350 8 18 26 30 26 25 30 33 36 44 53 57 58 60 62 61 60 60 61 60 60 61 62 62 63 63 65 68 70 74 77 80 83 86 92 98 102
216 217 219 219 217 213 211 215 223 223 219 219 221 224 229 231 230 231 233 239 245 246 247 253 274 306 333 349 0 6 8 11 18 24 27 34 43 52 56 59 62 62 61 60 61 62 62 61 61 61 63 64 65 66 68 71 74 79 83 86 90 96 101
218 221 223 222 220 216 212 213 222 224 221 221 222 224 229 234 238 239 239 242 248 250 251 254 260 271 294 316 329 337 344 351 359 8 14 21 31 41 50 55 58 59 61 61 61 62 63 63 62 61 62 64 66 65 66 68 71 75 80 84 87 91 97
220 223 224 223 222 220 216 213 218 224 224 223 224 225 229 236 243 245 246 246 249 251 253 255 257 263 273 288 303 313 321 329 336 343 350 0 11 23 36 47 52 53 55 58 60 61 63 63 64 64 63 64 66 66 66 67 69 72 75 79 83 88 95
220 222 224 223 223 223 220 216 217 221 224 224 226 227 230 237 244 247 249 250 252 253 254 253 254 260 267 273 282 292 300 308 316 322 326 332 342 356 13 29 41 48 49 51 54 57 61 64 66 65 65 65 65 67 68 68 69 71 73 75 79 84 91
219 221 223 224 225 225 221 218 217 221 226 228 229 230 233 238 243 245 248 250 252 254 254 253 253 257 262 265 270 276 283 291 297 303 309 312 318 326 339 357 16 35 43 44 46 48 53 60 65 67 67 65 65 66 68 69 68 68 70 73 76 80 84
218 220 223 224 226 226 223 220 219 222 229 231 230 232 238 242 243 242 244 248 252 255 255 254 252 254 259 262 264 268 271 276 282 287 293 297 302 308 313 322 343 5 26 35 38 41 42 46 56 63 67 67 66 65 66 68 69 67 67 69 72 77 82
216 219 223 225 227 227 226 226 224 225 230 231 231 236 242 244 244 244 246 249 253 258 259 257 254 254 257 259 259 262 264 265 268 273 278 283 287 293 297 301 311 326 341 2 20 29 33 35 41 50 60 67 68 67 65 64 67 68 68 67 68 71 77
217 219 224 227 230 230 229 230 230 228 229 230 234 242 247 247 246 247 251 255 257 260 261 260 257 256 257 258 257 258 261 261 261 263 265 270 276 279 283 287 292 303 310 313 325 351 9 21 29 34 43 58 68 71 70 65 63 65 67 69 68 68 70
218 222 226 227 227 229 231 234 236 235 233 235 240 247 252 255 254 252 255 259 258 257 259 259 259 258 259 258 257 255 256 257 257 259 259 260 264 268 271 275 279 286 295 298 298 302 321 345 5 14 12 22 50 67 75 74 70 67 66 66 67 67 69
215 220 226 228 227 227 229 230 233 236 238 243 248 251 255 258 259 256 256 258 258 255 256 256 257 258 258 258 256 254 253 253 253 254 256 255 256 259 263 266 269 273 280 287 290 290 290 299 317 328 329 333 346 2 27 69 81 75 73 75 71 67 67
209 214 218 221 224 227 227 226 226 229 235 241 244 247 251 253 254 254 252 252 254 255 254 254 253 254 255 257 255 251 250 251 251 251 253 253 253 253 256 259 261 263 269 276 282 285 283 281 289 297 301 308 314 317 320 325 0 15 25 50 67 69 63
205 210 213 214 216 218 221 222 223 225 230 236 238 239 243 245 246 250 252 251 252 255 255 254 254 254 255 256 255 252 251 251 252 252 252 253 253 253 252 253 255 257 261 267 271 277 280 278 279 284 288 294 300 304 307 312 323 330 329 339 12 38 41
205 205 208 212 215 215 214 216 218 219 223 230 233 235 235 235 236 241 247 248 249 253 255 254 253 253 254 255 255 254 254 252 249 250 252 253 255 257 254 251 251 253 256 260 265 271 276 277 277 278 280 285 291 297 303 309 312 308 298 292 295 322 339
207 206 207 209 214 216 213 212 214 215 218 222 226 230 230 228 228 229 233 237 240 243 248 251 251 248 247 252 256 257 256 252 248 248 250 252 255 257 257 251 247 249 253 257 262 267 270 271 271 272 273 276 280 286 293 297 296 293 288 280 274 282 302
208 211 212 209 210 212 212 211 210 210 213 216 219 225 228 228 228 227 226 228 231 233 236 241 246 245 244 249 256 259 258 251 247 247 248 250 253 255 256 251 244 244 248 253 258 263 266 267 269 269 270 272 273 278 285 287 285 284 284 280 276 279 288
209 211 212 209 207 208 209 209 208 206 209 212 215 219 223 226 229 228 227 229 231 232 232 234 240 245 247 249 250 253 252 245 243 245 247 248 251 253 255 252 244 240 242 247 253 258 262 264 266 268 269 270 270 273 277 277 278 279 281 281 282 283 286
211 211 210 207 206 208 209 208 204 201 203 209 215 218 219 222 226 229 229 230 231 231 229 230 232 237 242 244 243 245 245 240 239 242 244 248 251 252 254 253 247 241 242 245 246 250 256 260 261 264 265 267 268 269 269 269 270 272 274 278 281 282 282
213 212 211 208 206 207 210 209 203 198 200 206 215 220 221 220 222 227 229 229 230 229 224 222 224 227 230 233 237 242 243 238 237 239 242 246 250 249 248 249 249 245 244 247 248 248 251 253 256 258 261 263 265 266 266 266 266 267 268 271 277 280 281
215 214 213 211 208 206 208 210 208 201 199 204 212 218 222 222 221 223 224 225 228 227 222 219 221 223 224 225 232 240 240 236 236 237 240 245 247 246 243 242 244 244 243 248 252 250 248 248 251 255 257 259 261 263 265 266 267 267 266 268 272 276 278
214 214 214 213 212 209 207 209 210 207 203 205 211 216 220 223 223 222 221 222 224 225 223 220 220 222 224 225 230 236 237 237 238 237 239 243 245 245 244 242 242 242 244 248 251 250 251 251 250 253 255 257 258 259 261 264 268 269 266 266 270 272 274
215 215 215 215 216 215 213 211 211 211 209 210 213 216 217 219 223 225 226 226 226 227 226 223 221 222 225 227 230 235 238 239 238 235 236 239 238 237 241 244 245 245 245 247 249 253 257 254 251 253 257 258 258 257 257 261 265 268 267 267 270 271 270
216 217 217 218 219 218 218 217 215 213 212 212 214 215 216 218 221 224 227 227 228 230 229 225 223 224 227 229 231 235 236 236 234 232 233 235 233 232 233 237 242 244 243 242 244 252 260 256 252 255 259 260 259 257 258 260 263 265 266 266 268 269 268
218 218 219 221 222 221 220 220 219 217 216 216 216 216 217 220 222 224 224 224 225 227 227 225 223 224 227 229 232 233 233 232 231 231 232 233 233 233 232 235 239 242 242 241 245 254 259 255 252 254 256 259 260 259 260 262 263 264 263 263 265 266 266
219 220 220 222 224 224 222 221 221 221 221 220 220 219 220 222 223 224 224 221 220 221 222 222 222 224 226 229 231 232 232 232 231 230 230 232 233 233 234 236 238 240 243 247 250 255 256 252 250 251 253 255 257 258 258 260 261 262 261 260 262 263 264
220 221 222 222 224 226 226 223 222 223 222 222 222 222 223 223 224 224 224 221 219 220 221 221 222 224 226 229 230 229 229 230 229 228 228 230 233 234 234 236 237 238 242 246 248 249 250 249 248 249 250 252 253 254 256 257 259 261 261 259 260 261 261
221 223 223 223 224 226 227 226 224 223 222 223 223 223 224 225 225 224 224 223 221 221 222 222 223 223 226 228 227 225 226 226 226 227 227 228 230 231 232 234 236 237 240 241 239 238 241 243 244 246 247 248 249 251 253 255 256 259 259 258 258 258 257
221 223 224 224 225 226 227 227 226 224 222 222 223 223 223 224 225 225 224 223 223 223 222 222 223 223 224 226 225 223 224 226 226 227 228 228 229 230 231 233 235 237 239 239 238 239 241 242 244 244 245 246 248 251 253 253 253 254 256 256 256 256 254
220 222 223 224 225 225 226 227 226 225 223 221 221 222 223 224 225 225 224 224 225 226 225 224 223 223 224 225 225 224 224 225 226 228 229 229 230 232 234 236 236 237 239 240 241 242 244 245 246 246 247 247 249 251 253 251 250 250 252 254 255 254 251
220 221 222 222 223 224 225 226 225 225 224 222 221 221 222 224 225 225 225 225 226 227 228 227 226 225 225 226 226 226 225 225 225 227 228 229 230 231 235 238 239 239 240 241 242 243 243 244 245 247 248 249 250 251 251 251 250 248 247 249 252 253 250
222 222 222 221 222 222 223 224 224 224 224 224 222 222 222 224 225 226 227 227 227 228 229 229 229 228 228 228 228 228 227 227 227 228 228 229 230 231 234 238 240 241 242 243 244 244 244 244 244 245 246 247 248 250 250 251 251 248 246 246 250 251 249
223 223 223 223 222 221 222 222 222 223 223 224 224 223 223 224 225 227 228 228 229 229 230 231 232 232 231 231 231 231 231 230 230 231 231 231 231 232 233 236 239 242 242 243 244 244 245 245 244 243 243 243 243 243 246 249 249 248 247 247 248 249 249
224 224 224 224 223 222 221 221 221 221 222 224 224 224 224 224 225 226 227 229 230 230 231 232 233 234 234 234 233 233 233 233 234 234 235 234 233 233 233 235 238 240 241 241 242 243 244 244 244 243 243 243 240 238 241 245 247 247 248 248 248 249 249
225 225 225 225 225 223 222 221 221 221 221 222 224 224 224 224 224 225 227 228 229 230 231 232 233 234 235 236 235 235 234 235 236 237 237 237 236 236 235 234 235 238 240 240 241 242 243 243 242 242 242 242 240 238 240 242 243 245 247 247 248 248 248
226 226 226 226 226 225 224 223 222 221 221 222 223 224 224 224 224 225 226 228 229 230 230 231 231 232 233 234 235 235 235 235 236 237 238 238 238 238 238 236 235 236 238 239 240 241 241 240 240 239 240 241 240 239 239 240 242 242 243 244 246 248 249
227 227 227 227 227 227 227 226 224 223 222 222 223 223 224 224 225 225 226 227 229 229 230 230 230 231 231 232 232 233 234 235 235 236 237 238 238 239 239 238 237 236 236 238 239 240 239 238 238 238 239 241 242 241 239 240 241 242 241 241 243 246 249
228 228 228 229 229 228 228 229 228 227 226 225 224 225 225 225 225 226 226 227 228 229 230 230 229 229 229 229 230 230 231 232 234 234 235 235 236 237 237 238 237 236 236 236 238 239 239 238 238 238 240 242 244 245 244 242 242 242 242 243 245 247 250
Height
10996 10999 11001 11004 11006 11008 11010 11012 11014 11015 11017 11018 11020 11021 11022 11022 11023 11024 11025 11025 11026 11026 11026 11026 11026 11026 11026 11026 11026 11026 11026 11025 11025 11025 11024 11023 11022 11021 11020 11019 11018 11017 11015 11014 11012 11011 11010 11009 11008 11007 11007 11006 11006 11005 11005 11004 11004 11004 11004 11004 11004 11004 11004
10993 10995 10998 11001 11003 11005 11008 11010 11012 11013 11014 11016 11018 11019 11020 11021 11022 11023 11024 11025 11025 11025 11026 11026 11026 11026 11026 11026 11026 11026 11026 11026 11026 11026 11025 11024 11023 11023 11022 11021 11020 11019 11018 11016 11015 11014 11013 11011 11011 11010 11009 11009 11008 11008 11007 11007 11007 11007 11007 11007 11007 11008 11008
10989 10991 10995 10998 11001 11003 11005 11007 11009 11011 11012 11013 11015 11017 11019 11020 11021 11022 11023 11024 11024 11025 11025 11026 11026 11026 11026 11026 11026 11026 11026 11027 11027 11026 11026 11026 11025 11024 11024 11023 11022 11021 11020 11019 11018 11016 11015 11014 11013 11012 11012 11011 11011 11011 11010 11010 11009 11009 11009 11010 11010 11010 11010
10986 10989 10992 10996 10999 11001 11003 11005 11007 11009 11010 11011 11013 11015 11017 11018 11019 11020 11021 11022 11023 11024 11024 11025 11026 11026 11026 11026 11026 11027 11027 11027 11027 11027 11027 11027 11026 11026 11025 11024 11024 11023 11022 11021 11020 11019 11018 11017 11016 11015 11014 11013 11013 11013 11013 11012 11012 11012 11012 11012 11012 11012 11012
10983 10986 10990 10994 10997 10999 11000 11002 11005 11007 11009 11009 11010 11013 11015 11016 11017 11018 11019 11020 11021 11022 11023 11024 11025 11026 11026 11026 11026 11027 11027 11027 11028 11028 11027 11027 11027 11027 11026 11026 11025 11024 11024 11023 11022 11021 11021 11020 11018 11018 11017 11016 11015 11015 11015 11015 11015 11014 11014 11014 11014 11015 11015
10981 10984 10988 10992 10994 10997 10999 11001 11003 11005 11007 11008 11008 11010 11012 11014 11015 11016 11017 11018 11019 11021 11022 11023 11024 11025 11025 11026 11026 11027 11027 11027 11028 11028 11028 11028 11027 11027 11027 11027 11026 11026 11025 11024 11024 11023 11023 11022 11021 11020 11019 11018 11018 11017 11017 11017 11017 11017 11016 11016 11017 11017 11017
10978 10982 10986 10989 10992 10994 10996 10998 11000 11002 11003 11005 11006 11007 11009 11011 11013 11014 11015 11016 11017 11018 11020 11021 11023 11023 11024 11025 11026 11026 11027 11027 11027 11028 11028 11028 11028 11028 11027 11027 11027 11026 11026 11025 11025 11025 11025 11024 11023 11022 11021 11021 11020 11019 11019 11018 11018 11018 11018 11018 11019 11019 11019
10975 10979 10982 10985 10988 10990 10991 10993 10996 10998 11000 11003 11004 11005 11007 11009 11010 11011 11013 11014 11015 11016 11018 11020 11021 11022 11023 11024 11024 11025 11026 11026 11027 11027 11028 11028 11028 11027 11027 11027 11027 11027 11026 11026 11025 11025 11025 11025 11025 11024 11023 11022 11022 11021 11021 11020 11020 11020 11020 11020 11020 11020 11020
10970 10973 10976 10980 10983 10986 10988 10991 10994 10997 10999 11000 11001 11002 11004 11006 11008 11009 11010 11012 11014 11015 11016 11017 11019 11020 11021 11022 11023 11023 11024 11025 11026 11026 11027 11027 11027 11027 11027 11027 11027 11027 11026 11026 11026 11026 11025 11025 11026 11025 11025 11024 11024 11023 11023 11022 11021 11021 11021 11021 11021 11021 11022
10968 10972 10975 10979 10982 10985 10987 10990 10993 10995 10997 10998 11000 11001 11001 11004 11006 11007 11008 11010 11012 11013 11014 11015 11017 11017 11019 11020 11021 11021 11022 11023 11024 11025 11025 11026 11026 11026 11026 11026 11026 11026 11026 11026 11026 11026 11025 11025 11026 11026 11026 11025 11025 11025 11024 11024 11023 11023 11022 11022 11022 11022 11022
10970 10975 10978 10979 10980 10982 10985 10988 10990 10992 10994 10995 10997 10998 10999 11001 11004 11006 11006 11007 11009 11011 11012 11013 11014 11015 11016 11017 11018 11019 11019 11020 11021 11022 11023 11024 11025 11025 11026 11026 11026 11025 11025 11025 11025 11025 11025 11025 11026 11026 11026 11026 11026 11025 11025 11025 11024 11024 11024 11023 11023 11023 11023
10970 10976 10978 10978 10979 10980 10982 10985 10987 10990 10992 10994 10996 10996 10997 10999 11001 11003 11003 11004 11005 11007 11008 11010 11011 11012 11013 11014 11015 11016 11016 11017 11018 11019 11020 11021 11022 11023 11024 11024 11025 11024 11024 11024 11024 11024 11025 11025 11025 11025 11026 11026 11026 11026 11025 11025 11025 11025 11025 11024 11024 11023 11023
10968 10972 10972 10972 10975 10978 10980 10982 10985 10988 10991 10992 10993 10995 10996 10996 10997 10998 10999 11001 11001 11002 11003 11005 11007 11008 11009 11010 11011 11011 11012 11013 11014 11016 11017 11018 11019 11020 11021 11022 11023 11023 11023 11023 11023 11023 11024 11024 11025 11025 11025 11025 11025 11025 11025 11025 11025 11025 11025 11025 11025 11024 11024
10962 10964 10963 10963 10965 10968 10972 10976 10980 10985 10988 10989 10990 10992 10993 10993 10994 10995 10995 10996 10998 10998 10998 11000 11002 11004 11004 11005 11006 11006 11008 11010 11011 11012 11014 11015 11016 11018 11019 11019 11021 11022 11022 11023 11022 11022 11022 11023 11024 11024 11023 11023 11023 11024 11024 11024 11024 11025 11025 11025 11025 11025 11024
10948 10954 10957 10958 10958 10958 10960 10964 10970 10976 10981 10984 10985 10987 10989 10989 10991 10992 10993 10993 10994 10994 10994 10994 10997 11000 11000 10999 10999 11001 11003 11006 11007 11008 11010 11012 11014 11015 11016 11017 11018 11020 11021 11021 11021 11021 11021 11022 11022 11022 11022 11022 11022 11022 11022 11023 11023 11023 11023 11023 11024 11024 11024
10939 10945 10948 10950 10952 10952 10954 10957 10961 10966 10971 10975 10979 10982 10984 10985 10986 10987 10988 10989 10989 10990 10991 10990 10991 10995 10997 10994 10993 10995 10998 11001 11002 11004 11006 11008 11010 11011 11012 11014 11015 11017 11018 11019 11019 11020 11020 11020 11020 11020 11020 11020 11020 11021 11021 11022 11021 11021 11021 11021 11022 11022 11022
10928 10931 10933 10938 10942 10945 10949 10952 10955 10958 10963 10968 10972 10975 10979 10981 10982 10982 10982 10982 10982 10984 10986 10987 10987 10990 10992 10991 10989 10990 10992 10995 10997 10999 11001 11003 11005 11007 11008 11009 11011 11013 11015 11016 11017 11018 11018 11018 11018 11018 11018 11018 11018 11019 11020 11020 11019 11019 11019 11019 11020 11020 11021
10917 10919 10921 10927 10932 10937 10942 10947 10950 10953 10957 10961 10964 10967 10971 10975 10977 10977 10977 10977 10977 10979 10981 10983 10985 10987 10987 10986 10985 10985 10987 10989 10991 10993 10995 10998 11000 11002 11003 11004 11006 11008 11010 11012 11013 11014 11014 11015 11015 11016 11016 11016 11016 11017 11018 11018 11017 11017 11017 11017 11017 11018 11018
10906 10909 10912 10917 10923 10929 10934 10938 10942 10946 10949 10952 10954 10957 10961 10966 10969 10970 10971 10972 10972 10973 10976 10978 10980 10981 10981 10982 10981 10980 10981 10984 10985 10988 10990 10993 10994 10997 10998 10999 11001 11003 11005 11007 11008 11009 11009 11010 11011 11011 11011 11012 11013 11014 11015 11015 11014 11014 11014 11014 11014 11015 11015
10897 10902 10906 10910 10915 10921 10926 10929 10933 10937 10941 10945 10947 10949 10953 10957 10960 10962 10965 10967 10968 10968 10970 10971 10971 10972 10975 10978 10978 10975 10975 10978 10981 10983 10986 10988 10990 10992 10993 10995 10997 10999 11000 11002 11003 11004 11004 11004 11004 11005 11006 11006 11008 11009 11011 11012 11012 11011 11012 11012 11012 11012 11012
10888 10894 10899 10903 10908 10914 10919 10922 10926 10929 10933 10937 10940 10942 10944 10948 10952 10956 10959 10961 10959 10960 10962 10962 10961 10963 10968 10972 10973 10970 10969 10972 10976 10979 10981 10983 10985 10987 10989 10991 10993 10994 10996 10998 10999 10998 10998 10998 10999 11000 11000 11001 11002 11004 11005 11007 11008 11009 11009 11009 11009 11009 11010
10880 10885 10890 10895 10901 10908 10912 10916 10920 10923 10926 10930 10932 10933 10935 10939 10945 10948 10949 10948 10948 10949 10952 10952 10953 10956 10960 10963 10965 10964 10963 10966 10971 10974 10976 10978 10981 10983 10985 10987 10989 10992 10995 10995 10994 10994 10994 10995 10995 10995 10995 10996 10997 10999 11000 11001 11003 11004 11005 11006 11006 11006 11007
10872 10876 10881 10886 10892 10898 10904 10908 10912 10916 10919 10922 10924 10927 10929 10932 10935 10938 10939 10939 10941 10942 10943 10944 10947 10950 10952 10953 10956 10957 10958 10961 10965 10968 10970 10972 10974 10976 10979 10982 10985 10989 10991 10989 10989 10991 10992 10992 10992 10992 10992 10992 10993 10994 10995 10997 10999 11000 11001 11002 11003 11003 11003
10864 10868 10873 10878 10882 10888 10894 10898 10903 10909 10911 10913 10916 10920 10922 10923 10924 10927 10930 10932 10934 10935 10936 10939 10941 10943 10944 10946 10948 10951 10953 10955 10958 10961 10963 10965 10968 10971 10973 10976 10979 10983 10984 10982 10983 10987 10989 10989 10990 10990 10989 10990 10990 10991 10991 10993 10994 10996 10997 10998 10999 10999 10999
10855 10859 10865 10869 10873 10879 10885 10889 10894 10899 10902 10904 10907 10910 10910 10909 10909 10913 10917 10921 10923 10926 10929 10931 10933 10935 10938 10940 10942 10944 10947 10949 10951 10953 10955 10958 10961 10965 10967 10970 10973 10976 10977 10976 10977 10979 10982 10985 10986 10987 10987 10987 10987 10987 10987 10988 10989 10990 10991 10993 10994 10995 10994
10846 10850 10855 10859 10864 10869 10875 10880 10885 10888 10892 10895 10897 10899 10898 10898 10899 10902 10907 10911 10913 10916 10919 10921 10924 10928 10931 10933 10935 10938 10939 10941 10943 10945 10948 10951 10954 10957 10959 10962 10964 10967 10969 10970 10971 10972 10974 10976 10978 10980 10981 10981 10981 10981 10982 10983 10983 10983 10985 10987 10989 10991 10991
10836 10840 10845 10850 10854 10858 10863 10870 10875 10879 10882 10885 10886 10888 10889 10891 10892 10895 10898 10901 10903 10906 10908 10911 10916 10920 10922 10922 10926 10929 10930 10932 10934 10936 10940 10943 10945 10947 10949 10951 10954 10958 10960 10962 10964 10965 10966 10967 10969 10971 10972 10972 10973 10973 10974 10976 10977 10978 10980 10982 10984 10987 10988
10827 10830 10835 10840 10844 10848 10852 10858 10864 10869 10872 10874 10876 10878 10880 10882 10884 10887 10889 10891 10893 10895 10897 10900 10906 10909 10910 10912 10918 10922 10923 10924 10925 10927 10932 10935 10936 10936 10938 10941 10946 10949 10951 10954 10957 10958 10958 10960 10962 10962 10963 10965 10965 10966 10968 10970 10971 10973 10974 10976 10978 10981 10983
10816 10820 10824 10829 10834 10838 10842 10846 10852 10858 10862 10864 10865 10867 10869 10871 10874 10878 10880 10882 10884 10885 10887 10891 10895 10898 10900 10904 10910 10914 10916 10917 10918 10919 10923 10927 10927 10927 10928 10931 10937 10941 10943 10946 10949 10949 10950 10953 10954 10952 10953 10956 10957 10959 10961 10963 10965 10966 10968 10969 10971 10974 10976
10805 10809 10813 10817 10822 10826 10830 10835 10840 10845 10850 10853 10855 10857 10859 10861 10864 10867 10870 10872 10875 10877 10879 10883 10886 10888 10891 10895 10900 10904 10907 10908 10909 10911 10914 10917 10919 10920 10921 10924 10928 10932 10935 10938 10939 10940 10941 10945 10945 10944 10946 10948 10950 10953 10955 10957 10958 10960 10961 10963 10964 10966 10969
10793 10797 10802 10806 10810 10814 10818 10823 10827 10832 10837 10841 10844 10847 10849 10851 10854 10857 10859 10862 10865 10867 10870 10874 10876 10879 10883 10886 10890 10893 10896 10897 10899 10901 10904 10907 10910 10912 10915 10917 10921 10925 10928 10929 10930 10930 10931 10933 10935 10936 10938 10940 10942 10945 10947 10949 10951 10953 10954 10955 10957 10960 10963
10781 10786 10791 10795 10799 10803 10806 10811 10815 10819 10823 10827 10831 10835 10838 10841 10844 10847 10849 10852 10855 10858 10860 10864 10867 10870 10874 10877 10880 10883 10885 10887 10888 10891 10894 10897 10900 10903 10906 10909 10913 10917 10918 10919 10921 10923 10923 10923 10924 10926 10928 10930 10933 10936 10938 10940 10942 10944 10945 10947 10950 10953 10955
10770 10775 10780 10784 10789 10792 10796 10799 10804 10808 10811 10815 10818 10822 10826 10830 10833 10837 10840 10843 10845 10848 10851 10854 10857 10861 10865 10868 10871 10873 10876 10877 10879 10881 10884 10887 10889 10893 10896 10900 10904 10907 10908 10909 10912 10915 10914 10913 10915 10915 10916 10919 10923 10926 10927 10929 10932 10934 10937 10940 10942 10943 10945
10759 10764 10768 10773 10777 10782 10785 10789 10792 10796 10800 10804 10807 10811 10814 10818 10822 10825 10829 10832 10835 10838 10841 10844 10847 10851 10855 10858 10861 10864 10866 10869 10870 10872 10874 10876 10879 10882 10886 10890 10894 10897 10898 10900 10903 10904 10903 10903 10905 10906 10907 10910 10913 10915 10916 10919 10922 10924 10927 10930 10932 10934 10935
10749 10753 10757 10761 10766 10770 10774 10778 10782 10786 10790 10793 10796 10799 10803 10806 10810 10813 10817 10820 10823 10826 10830 10834 10837 10841 10844 10847 10850 10853 10856 10859 10861 10863 10864 10867 10869 10872 10876 10881 10884 10885 10887 10890 10892 10893 10893 10894 10897 10898 10898 10899 10902 10904 10906 10909 10912 10914 10916 10919 10922 10924 10925
10738 10742 10746 10750 10754 10758 10763 10767 10771 10775 10779 10782 10786 10788 10791 10794 10797 10801 10805 10808 10811 10815 10819 10823 10826 10829 10833 10836 10839 10841 10844 10847 10850 10853 10855 10857 10859 10862 10865 10870 10873 10875 10877 10880 10882 10883 10883 10885 10887 10889 10889 10888 10890 10894 10897 10900 10902 10904 10906 10908 10911 10914 10916
10726 10731 10735 10739 10743 10747 10751 10755 10760 10764 10767 10770 10773 10776 10779 10782 10785 10789 10793 10796 10799 10803 10807 10811 10815 10817 10821 10825 10828 10830 10832 10834 10838 10842 10845 10847 10849 10851 10854 10858 10861 10864 10867 10870 10872 10873 10873 10874 10876 10878 10878 10878 10879 10884 10887 10889 10891 10893 10895 10897 10899 10901 10904
10714 10719 10723 10727 10731 10735 10739 10743 10747 10751 10755 10758 10760 10763 10767 10770 10773 10777 10780 10784 10787 10790 10795 10799 10803 10806 10809 10812 10816 10819 10820 10822 10825 10829 10833 10836 10838 10840 10843 10846 10850 10853 10855 10858 10860 10861 10863 10864 10864 10866 10868 10868 10869 10872 10875 10877 10879 10882 10884 10886 10888 10890 10892